| time (UTC) | temp F | wind direction | speed knots | gust knots | rain 1hr in | rain 24hr in | rain mn in | humidity % | barometer mb |
| 20260506003056 | 49 | 138 | 6.1 | 14.8 | 0.00 | 0.16 | 0.16 | 98 | 1007.5 |
| 20260506001603 | 49 | 200 | 7.0 | 17.4 | 0.00 | 0.16 | 0.16 | 99 | 1007.3 |
| 20260506000056 | 49 | 219 | 6.1 | 13.0 | 0.00 | 0.16 | 0.16 | 99 | 1007.3 |
| 20260505234554 | 49 | 154 | 5.2 | 14.8 | 0.00 | 0.16 | 0.16 | 99 | 1007.1 |
| 20260505233107 | 49 | 254 | 6.1 | 15.6 | 0.01 | 0.16 | 0.16 | 98 | 1006.9 |
| 20260505231554 | 49 | 286 | 5.2 | 13.0 | 0.01 | 0.16 | 0.16 | 99 | 1006.7 |
| 20260505230059 | 49 | 259 | 9.6 | 21.7 | 0.03 | 0.16 | 0.16 | 98 | 1007.1 |
| 20260505224601 | 49 | 242 | 10.4 | 20.9 | 0.06 | 0.16 | 0.16 | 98 | 1007.0 |
| 20260505223101 | 50 | 281 | 9.6 | 26.1 | 0.07 | 0.15 | 0.15 | 97 | 1006.8 |
| 20260505221556 | 49 | 300 | 8.7 | 23.5 | 0.13 | 0.15 | 0.15 | 97 | 1006.3 |
| 20260505220056 | 49 | 194 | 8.7 | 22.6 | 0.13 | 0.13 | 0.13 | 97 | 1006.7 |
| 20260505214624 | 50 | 222 | 15.6 | 26.1 | 0.10 | 0.10 | 0.10 | 97 | 1007.2 |
| 20260505213102 | 51 | 287 | 10.4 | 24.3 | 0.08 | 0.08 | 0.08 | 94 | 1006.9 |
| 20260505211602 | 57 | 127 | 7.8 | 19.1 | 0.02 | 0.02 | 0.02 | 81 | 1005.8 |
| 20260505210056 | 62 | 210 | 7.8 | 17.4 | 0.00 | 0.00 | 0.00 | 57 | 1004.7 |
| 20260505204556 | 63 | 210 | 8.7 | 16.5 | 0.00 | 0.00 | 0.00 | 56 | 1004.4 |
| 20260505203059 | 63 | 115 | 11.3 | 20.0 | 0.00 | 0.00 | 0.00 | 58 | 1004.5 |
| 20260505201559 | 62 | 149 | 7.0 | 20.9 | 0.00 | 0.00 | 0.00 | 58 | 1004.3 |
| 20260505200058 | 62 | 152 | 10.4 | 20.0 | 0.00 | 0.00 | 0.00 | 59 | 1004.4 |
| 20260505194558 | 62 | 152 | 8.7 | 18.2 | 0.00 | 0.00 | 0.00 | 60 | 1004.2 |
| 20260505193055 | 63 | 210 | 11.3 | 22.6 | 0.00 | 0.00 | 0.00 | 59 | 1004.3 |
| 20260505191605 | 63 | 149 | 11.3 | 22.6 | 0.00 | 0.00 | 0.00 | 59 | 1004.5 |
| 20260505184601 | 64 | 210 | 5.2 | 19.1 | 0.00 | 0.00 | 0.00 | 58 | 1004.9 |
| 20260505183114 | 63 | 130 | 7.0 | 19.1 | 0.00 | 0.00 | 0.00 | 60 | 1005.0 |
| 20260505181553 | 62 | 148 | 13.0 | 30.4 | 0.00 | 0.00 | 0.00 | 62 | 1005.0 |
| 20260505180055 | 62 | 119 | 11.3 | 20.9 | 0.00 | 0.00 | 0.00 | 61 | 1004.8 |
| 20260505174554 | 61 | 123 | 11.3 | 25.2 | 0.00 | 0.01 | 0.00 | 62 | 1005.0 |
| 20260505173057 | 61 | 210 | 8.7 | 19.1 | 0.00 | 0.01 | 0.00 | 63 | 1005.3 |
| 20260505171600 | 61 | 210 | 7.0 | 21.7 | 0.00 | 0.01 | 0.00 | 62 | 1005.9 |
| 20260505170053 | 60 | 210 | 11.3 | 20.9 | 0.00 | 0.01 | 0.00 | 64 | 1005.5 |
| 20260505164554 | 59 | 146 | 12.2 | 22.6 | 0.00 | 0.01 | 0.00 | 66 | 1005.8 |
| 20260505163055 | 58 | 140 | 8.7 | 20.0 | 0.00 | 0.01 | 0.00 | 68 | 1006.4 |
| 20260505161621 | 58 | 153 | 9.6 | 18.2 | 0.00 | 0.01 | 0.00 | 67 | 1006.5 |
| 20260505153059 | 58 | 210 | 7.0 | 19.1 | 0.00 | 0.02 | 0.00 | 68 | 1006.9 |
| 20260505151618 | 55 | 148 | 7.0 | 16.5 | 0.00 | 0.02 | 0.00 | 72 | 1006.9 |
| 20260505124554 | 52 | 159 | 11.3 | 21.7 | 0.00 | 0.02 | 0.00 | 70 | 1006.2 |
| 20260505123053 | 52 | 132 | 9.6 | 20.9 | 0.00 | 0.02 | 0.00 | 70 | 1006.5 |
| 20260505121554 | 51 | 143 | 9.6 | 17.4 | 0.00 | 0.02 | 0.00 | 71 | 1006.6 |
| 20260505120111 | 51 | 210 | 7.8 | 16.5 | 0.00 | 0.02 | 0.00 | 71 | 1006.9 |
| 20260505114555 | 50 | 210 | 9.6 | 19.1 | 0.00 | 0.02 | 0.00 | 71 | 1006.8 |
| 20260505113054 | 50 | 159 | 9.6 | 18.2 | 0.00 | 0.02 | 0.00 | 72 | 1006.8 |
| 20260505111553 | 49 | 152 | 9.6 | 17.4 | 0.00 | 0.02 | 0.00 | 72 | 1006.9 |
| 20260505101555 | 49 | 210 | 9.6 | 18.2 | 0.00 | 0.02 | 0.00 | 71 | 1006.7 |
| 20260505100058 | 49 | 142 | 8.7 | 19.1 | 0.00 | 0.02 | 0.00 | 71 | 1006.7 |
| 20260505094558 | 49 | 162 | 7.8 | 18.2 | 0.00 | 0.02 | 0.00 | 70 | 1006.6 |
| 20260505093058 | 49 | 210 | 10.4 | 19.1 | 0.00 | 0.02 | 0.00 | 70 | 1006.7 |
| 20260505091553 | 49 | 176 | 10.4 | 19.1 | 0.00 | 0.02 | 0.00 | 69 | 1006.8 |
| 20260505090056 | 49 | 185 | 9.6 | 17.4 | 0.00 | 0.02 | 0.00 | 68 | 1006.7 |
| 20260505084557 | 49 | 179 | 9.6 | 20.0 | 0.00 | 0.02 | 0.00 | 68 | 1006.7 |
| 20260505083056 | 49 | 210 | 11.3 | 19.1 | 0.00 | 0.02 | 0.00 | 67 | 1006.8 |
| 20260505081600 | 49 | 163 | 10.4 | 18.2 | 0.00 | 0.02 | 0.00 | 67 | 1006.8 |
| 20260505080056 | 48 | 154 | 10.4 | 18.2 | 0.00 | 0.02 | 0.00 | 67 | 1006.9 |
| 20260505074600 | 48 | 197 | 10.4 | 18.2 | 0.00 | 0.02 | 0.00 | 67 | 1006.9 |
| 20260505073105 | 48 | 210 | 9.6 | 17.4 | 0.00 | 0.02 | 0.00 | 67 | 1006.9 |
| 20260505071600 | 48 | 210 | 8.7 | 16.5 | 0.00 | 0.02 | 0.00 | 68 | 1006.9 |
| 20260505070054 | 47 | 150 | 9.6 | 17.4 | 0.00 | 0.02 | 0.00 | 70 | 1006.9 |
| 20260505064555 | 47 | 150 | 8.7 | 16.5 | 0.00 | 0.02 | 0.00 | 71 | 1007.0 |
| 20260505063055 | 47 | 165 | 8.7 | 18.2 | 0.00 | 0.02 | 0.00 | 71 | 1007.1 |
| 20260505061558 | 47 | 150 | 8.7 | 13.9 | 0.00 | 0.02 | 0.00 | 70 | 1006.9 |
| 20260505060056 | 47 | 145 | 7.8 | 13.9 | 0.00 | 0.02 | 0.00 | 70 | 1007.0 |
| 20260505054626 | 47 | 175 | 7.8 | 13.9 | 0.00 | 0.02 | 0.00 | 69 | 1007.0 |
| 20260505053111 | 48 | 171 | 9.6 | 15.6 | 0.00 | 0.02 | 0.00 | 68 | 1007.1 |
| 20260505051553 | 48 | 186 | 8.7 | 16.5 | 0.00 | 0.02 | 0.00 | 68 | 1006.9 |
| 20260505041601 | 48 | 173 | 8.7 | 14.8 | 0.00 | 0.02 | 0.00 | 69 | 1006.9 |
| 20260505040057 | 48 | 160 | 7.0 | 12.2 | 0.00 | 0.02 | 0.00 | 69 | 1006.8 |
| 20260505034554 | 48 | 152 | 7.0 | 13.0 | 0.00 | 0.02 | 0.02 | 70 | 1006.9 |
| 20260505033055 | 48 | 144 | 7.0 | 13.0 | 0.00 | 0.02 | 0.02 | 70 | 1006.8 |
| 20260505031608 | 48 | 151 | 6.1 | 11.3 | 0.00 | 0.02 | 0.02 | 70 | 1007.0 |
| 20260505030053 | 47 | 167 | 5.2 | 10.4 | 0.00 | 0.02 | 0.02 | 73 | 1007.0 |
| 20260505024559 | 46 | 139 | 6.1 | 10.4 | 0.00 | 0.02 | 0.02 | 75 | 1007.0 |
| 20260505023116 | 46 | 134 | 6.1 | 10.4 | 0.00 | 0.02 | 0.02 | 75 | 1007.1 |
| 20260505021552 | 46 | 157 | 5.2 | 9.6 | 0.00 | 0.02 | 0.02 | 76 | 1007.3 |
| 20260505020057 | 47 | 182 | 6.1 | 11.3 | 0.00 | 0.02 | 0.02 | 74 | 1007.2 |
| 20260505014604 | 47 | 220 | 6.1 | 11.3 | 0.00 | 0.02 | 0.02 | 74 | 1007.3 |
| 20260505013107 | 46 | 165 | 6.1 | 12.2 | 0.00 | 0.02 | 0.02 | 76 | 1007.2 |
| 20260505011555 | 45 | 210 | 6.1 | 10.4 | 0.00 | 0.02 | 0.02 | 78 | 1006.8 |
| 20260505010053 | 45 | 146 | 6.1 | 11.3 | 0.00 | 0.02 | 0.02 | 79 | 1006.7 |
| 20260505004558 | 45 | 169 | 7.0 | 11.3 | 0.00 | 0.02 | 0.02 | 79 | 1006.7 |